Probability
0 0 0 0 0 0 0 0 0 0 0 0 0 0 0 0 0 0 0 0 0 0 0 0 0 0 0 0 0 0 0 0 0 0 0 0 0 0 0 0 0 0 0 0 0 0 0 0 0
0 0 0 0 0 0 0 0 0 0 0 0 0 0 0 0 0 0 0 0 0 0 0 0 0 0 0 0 0 0 0 0 0 0 0 0 0 0 0 0 0 0 0 0 0 0 0 0 0
0 0 0 0 0 0 0 0 0 0 0 0 0 0 0 0 0 0 0 0 0 0 0 0 0 0 0 0 0 0 0 0 0 0 0 0 0 0 0 0 0 0 0 0 0 0 0 0 0
0 0 0 0 0 0 0 0 0 0 0 0 0 0 0 0 0 0 0 0 0 0 0 0 0 0 0 0 0 0 0 0 0 0 0 0 0 0 0 0 0 0 0 0 0 0 0 0 0
0 0 0 0 0 0 0 0 0 0 0 0 0 0 0 0 0 0 0 0 0 0 0 0 0 0 0 0 0 0 0 0 0 0 0 0 0 0 0 0 0 0 0 0 0 0 0 0 0
0 0 0 0 0 0 0 0 0 0 0 0 0 0 0 0 0 0 0 0 0 0 0 0 0 0 0 0 0 0 0 0 0 0 0 0 0 0 0 0 0 0 0 0 0 0 0 0 0
0 0 0 0 0 0 0 0 0 0 0 0 0 0 0 0 0 0 0 0 0 0 0 0 0 0 0 0 0 0 0 0 0 0 0 0 0 0 0 0 0 0 0 0 0 0 0 0 0
0 0 0 0 0 0 0 0 0 0 0 0 0 0 0 0 0 0 0 0 0 0 0 0 0 0 0 0 0 0 0 0 0 0 0 0 0 0 0 0 0 0 0 0 0 0 0 0 0
0 0 0 0 0 0 0 0 0 0 0 0 0 0 0 0 0 0 0 0 0 0 0 0 0 0 0 0 0 0 0 0 0 0 0 0 0 0 0 0 0 0 0 0 0 0 0 0 0
0 0 0 0 0 0 0 0 0 0 0 0 0 0 0 0 0 0 0 0 0 0 0 0 0 0 0 0 0 0 0 0 0 0 0 0 0 0 0 0 0 0 0 0 0 0 0 0 0
0 0 0 0 0 0 0 0 0 0 0 0 0 0 0 0 0 0 0 0 0 0 0 0 0 0 0 0 0 0 0 0 0 0 0 0 0 0 0 0 0 0 0 0 0 0 0 0 0
0 0 0 0 0 0 0 0 0 0 0 0 0 0 0 0 0 0 0 0 0 0 0 0 0 0 0 0 0 0 0 0 0 0 0 0 0 0 0 0 0 0 0 0 0 0 0 0 0
0 0 0 0 0 0 0 0 0 0 0 0 0 0 0 0 0 0 0 0 0 0 0 0 0 0 0 0 0 0 0 0 0 0 0 0 0 0 0 0 0 0 0 0 0 0 0 0 0
0 0 0 0 0 0 0 0 0 0 0 0 0 0 0 0 0 0 0 0 0 0 0 0 0 0 0 0 0 0 0 0 0 0 0 0 0 0 0 0 0 0 0 0 0 0 0 0 0
0 0 0 0 0 0 0 0 0 0 0 0 0 0 0 0 0 0 0 0 0 0 0 0 0 0 0 0 0 0 0 0 0 0 0 0 0 0 0 0 0 0 0 0 0 0 0 0 0
0 0 0 0 0 0 0 0 0 0 0 0 0 0 0 0 0 0 0 0 0 0 0 0 0 0 0 0 0 0 0 0 0 0 0 0 0 0 0 0 0 0 0 0 0 0 0 0 0
0 0 0 0 0 0 0 0 0 0 0 0 0 0 0 0 0 0 0 0 0 0 0 0 0 0 0 0 0 0 0 0 0 0 0 0 0 0 0 0 0 0 0 0 0 0 0 0 0
0 0 0 0 0 0 0 0 0 0 0 0 0 0 0 0 0 0 0 0 0 0 0 0 0 0 0 0 0 0 0 0 0 0 0 0 0 0 0 0 0 0 0 0 0 0 0 0 0
0 0 0 0 0 0 0 0 0 0 0 0 0 0 0 0 0 0 0 0 0 0 0 0 0 0 0 0 0 0 0 0 0 0 0 0 0 0 0 0 0 0 0 0 0 0 0 0 0
0 0 0 0 0 0 0 0 0 0 0 0 0 0 0 0 0 0 0 0 0 0 0 0 0 0 0 0 0 0 0 0 0 0 0 0 0 0 0 0 0 0 0 0 0 0 0 0 0
0 0 0 0 0 0 0 0 0 0 0 0 0 0 0 0 0 0 0 0 0 0 0 0 0 0 0 0 0 0 0 0 0 0 0 0 0 0 0 0 0 0 0 0 0 0 0 0 0
0 0 0 0 0 0 0 0 0 0 0 0 0 0 0 0 0 0 0 0 0 0 0 0 0 0 0 0 0 0 0 0 0 0 0 0 0 0 0 0 0 0 0 0 0 0 0 0 0
0 0 0 0 0 0 0 0 0 0 0 0 0 0 0 0 0 0 0 0 0 0 0 0 0 0 0 0 0 0 0 0 0 0 0 0 0 0 0 0 0 0 0 0 0 0 0 0 0
0 0 0 0 0 0 0 0 0 0 0 0 0 0 0 0 0 0 0 0 0 0 0 0 0 0 0 0 0 0 0 0 0 0 0 0 0 0 0 0 0 0 0 0 0 0 0 0 0
0 0 0 0 0 0 0 0 0 0 0 0 0 0 0 0 0 0 0 0 0 0 0 0 0 0 0 0 0 0 0 0 0 0 0 0 0 0 0 0 0 0 0 0 0 0 0 0 0
0 0 0 0 0 0 0 0 0 0 0 0 0 0 0 0 0 0 0 0 0 0 0 0 0 0 0 0 0 0 0 0 0 0 0 0 0 0 0 0 0 0 0 0 0 0 0 0 0
0 0 0 0 0 0 0 0 0 0 0 0 0 0 0 0 0 0 0 0 0 0 0 0 0 0 0 0 0 0 0 0 0 0 0 0 0 0 0 0 0 0 0 0 0 0 0 0 0
0 0 0 0 0 0 0 0 0 0 0 0 0 0 0 0 0 0 0 0 0 0 0 0 0 0 0 0 0 0 0 0 0 0 0 0 0 0 0 0 0 0 0 0 0 0 0 0 0
0 0 0 0 0 0 0 0 0 0 0 0 0 0 0 0 0 0 0 0 0 0 0 0 0 0 0 0 0 0 0 0 0 0 0 0 0 0 0 0 0 0 0 0 0 0 0 0 0
0 0 0 0 0 0 0 0 0 0 0 0 0 0 0 0 0 0 0 0 0 0 0 0 0 0 0 0 0 0 0 0 0 0 0 0 0 0 0 0 0 0 0 0 0 0 0 0 0
Wind_Speed
5 2 3 5 7 7 1 2 2 2 2 1 1 3 4 2 2 2 2 5 4 5 8 9 10 12 12 11 11 11 11 11 11 10 11 11 11 11 10 10 10 9 10 10 9 10 10 9 9
2 1 5 6 7 3 3 3 2 2 1 1 1 2 2 1 2 2 0 5 4 6 8 8 10 12 12 12 12 11 11 11 10 10 10 10 10 10 9 9 9 8 8 8 9 9 9 9 8
1 4 6 6 5 5 3 3 3 2 1 1 1 0 1 1 1 1 1 5 4 6 7 8 12 12 13 13 12 12 11 10 10 10 10 10 9 9 9 8 7 7 7 7 8 8 9 9 8
3 5 6 6 2 3 3 2 1 2 2 1 1 1 2 1 2 2 0 6 6 5 6 8 12 12 13 13 13 12 12 11 10 10 10 10 9 9 8 7 6 6 6 6 7 7 8 8 8
5 6 6 4 2 3 3 3 1 1 1 1 1 1 3 1 1 2 3 5 6 5 5 6 11 11 12 12 13 12 11 11 11 10 10 10 10 10 8 7 6 5 4 4 5 6 6 7 7
6 6 5 1 2 4 3 3 1 1 2 1 1 1 3 1 1 2 3 3 3 5 5 4 9 10 10 11 11 11 10 10 9 9 10 10 10 10 9 7 5 4 3 3 4 5 5 5 6
5 5 4 2 2 3 3 4 1 2 3 2 1 0 3 2 2 2 3 3 2 3 3 4 5 6 8 9 9 9 9 9 8 8 8 8 9 9 8 7 5 3 2 2 3 4 4 4 5
5 6 3 1 1 1 3 3 1 1 2 4 0 1 2 4 4 3 4 4 2 0 1 3 4 4 4 5 8 9 8 8 7 7 6 7 8 8 8 7 5 3 1 1 2 2 3 4 5
4 6 2 4 4 2 1 2 2 1 2 3 2 2 3 3 3 4 4 5 4 3 2 2 4 4 4 4 5 7 7 7 7 5 6 5 4 4 5 5 5 3 1 1 1 1 3 6 6
5 3 5 3 3 1 1 1 3 4 4 3 2 3 6 5 6 6 5 6 6 6 5 3 4 5 5 4 3 3 3 4 4 3 3 3 3 3 4 5 4 2 2 1 0 2 5 6 4
3 4 3 3 2 1 1 2 1 1 3 2 3 5 7 9 10 9 7 6 6 7 6 5 4 5 6 4 3 2 2 2 3 4 4 3 3 2 2 2 2 2 3 2 3 4 3 3 2
1 3 3 2 1 0 2 2 1 3 3 3 5 5 6 10 10 10 9 9 9 8 8 7 5 5 6 5 3 3 2 2 2 3 4 3 3 3 3 2 3 2 2 2 2 2 2 2 2
2 3 2 3 3 3 3 3 3 3 1 7 10 12 11 10 8 7 7 7 8 9 10 9 6 4 4 4 3 3 3 3 3 3 3 4 3 4 3 3 3 3 3 3 3 2 1 0 1
2 2 5 5 3 3 4 3 3 2 6 9 11 10 9 10 10 10 12 12 12 12 12 10 6 3 2 3 3 2 2 2 2 3 4 5 4 4 4 3 3 3 3 3 3 3 2 1 0
0 3 6 5 2 2 2 3 4 3 6 9 8 7 9 9 11 11 11 10 11 11 11 11 8 4 2 2 2 2 1 1 1 0 1 2 2 3 3 3 3 3 3 3 3 3 2 1 1
2 2 4 5 1 1 3 4 1 4 7 7 6 6 7 8 9 9 10 10 10 10 11 11 9 9 8 7 6 5 5 5 5 4 4 4 2 1 2 1 1 1 2 2 2 2 2 2 2
1 2 5 6 1 1 3 6 3 3 6 5 5 6 6 8 10 10 11 10 10 10 10 11 11 11 10 10 10 10 9 9 8 8 8 8 7 6 4 3 3 3 2 1 1 1 0 1 2
7 6 5 6 2 2 2 6 5 5 6 5 5 5 6 8 9 9 10 10 9 9 9 11 11 11 9 8 9 9 11 10 9 10 10 11 10 10 7 5 5 4 3 2 2 2 2 1 2
6 7 6 6 2 2 5 8 7 3 5 5 4 4 5 5 6 7 8 9 9 11 12 13 13 11 8 6 5 6 7 8 9 10 13 13 12 11 10 7 7 6 5 4 3 2 2 2 2
4 4 5 5 2 4 5 8 3 3 3 3 4 4 4 4 6 8 9 10 10 10 11 12 12 11 10 6 4 5 5 7 7 8 12 14 13 12 10 10 8 7 6 6 5 3 2 2 2
6 7 7 6 2 1 2 7 3 2 3 4 4 3 3 4 4 5 7 8 8 10 10 9 10 11 11 8 6 5 5 5 6 9 9 12 12 12 11 11 9 9 8 6 6 5 3 2 2
7 8 7 4 2 4 1 5 6 4 3 3 3 2 2 2 2 3 5 6 7 7 7 8 9 11 11 9 10 12 9 8 6 5 5 8 11 12 11 11 10 9 8 8 7 5 3 3 2
6 3 5 3 4 2 2 4 9 2 5 6 6 5 3 2 2 2 3 4 5 6 6 7 9 11 10 10 10 11 10 7 4 5 8 8 8 10 11 10 9 9 8 8 8 7 6 4 3
7 7 6 5 4 4 7 7 9 6 6 6 7 7 6 5 3 2 3 4 5 5 6 6 9 10 9 10 10 11 11 8 9 8 8 6 5 7 10 9 8 8 7 7 7 6 6 5 4
5 6 2 1 1 8 3 5 10 3 2 6 12 11 8 6 4 3 3 3 4 5 5 6 8 9 8 9 9 9 8 8 9 6 6 6 5 5 7 7 7 6 6 6 6 6 6 6 5
7 9 8 8 6 5 3 8 8 0 1 3 8 9 8 7 6 5 5 4 4 4 4 5 6 7 6 7 7 6 6 5 5 5 4 4 3 3 5 5 6 6 6 7 6 5 5 5 5
8 5 5 7 3 2 7 7 6 2 1 4 7 8 9 8 8 7 6 5 4 4 4 4 6 6 5 5 6 5 5 5 5 4 4 3 3 3 4 5 5 5 5 5 5 4 5 5 4
6 9 6 6 5 6 7 6 6 6 7 6 9 11 11 9 8 7 6 6 5 4 4 4 4 5 4 4 4 4 4 4 3 3 3 3 3 3 4 4 5 5 5 5 4 4 4 5 5
7 5 5 5 6 7 6 9 5 7 9 13 15 14 12 10 9 8 7 7 6 5 4 4 4 4 3 3 3 3 2 2 2 2 2 2 2 3 3 4 4 5 5 5 5 5 6 6 6
6 9 10 8 7 6 5 8 1 2 6 10 12 10 9 9 8 8 8 7 6 6 5 5 4 4 3 3 2 2 1 1 1 2 2 3 3 3 4 4 5 5 6 5 6 7 7 7 8
Wind_Direction
346 29 68 56 54 50 49 286 260 289 261 241 160 141 140 156 162 250 304 150 158 150 163 174 169 165 162 158 153 149 146 139 132 127 123 118 113 108 100 91 83 74 65 58 52 49 48 47 48
331 36 55 59 80 74 289 276 262 255 293 50 88 115 104 272 247 270 339 182 167 155 161 168 171 167 166 163 159 158 156 149 143 139 133 126 120 113 103 93 83 72 62 53 46 42 39 37 38
49 52 77 72 95 158 211 238 235 296 350 42 46 102 175 249 280 279 262 175 153 157 162 168 172 172 170 167 165 164 163 159 155 150 145 138 130 121 111 100 87 74 61 51 44 38 33 29 30
68 44 53 69 99 209 230 277 255 317 4 41 80 2 291 285 293 308 111 149 149 164 165 170 175 177 174 171 171 171 170 168 165 161 156 148 141 132 123 114 98 80 63 50 45 37 31 27 26
57 70 59 51 302 277 264 300 290 263 325 343 98 346 300 349 340 49 114 145 158 166 171 176 180 182 179 177 177 177 178 177 174 171 167 159 151 143 137 130 114 93 70 55 50 42 36 30 28
54 63 84 133 300 317 326 342 349 333 328 347 130 330 305 7 11 62 113 145 164 167 173 178 189 188 185 184 183 183 184 184 182 179 175 167 161 155 149 141 130 114 88 66 62 53 42 37 36
94 89 133 166 299 329 339 336 61 350 338 334 229 2 324 7 5 66 98 122 152 170 177 186 189 194 192 190 189 188 189 190 190 187 180 172 166 160 152 145 141 135 115 80 77 63 47 43 41
110 98 103 179 205 274 323 350 107 345 294 320 51 51 341 348 12 61 65 58 56 64 224 217 203 196 194 194 196 194 195 196 197 191 183 177 171 161 154 148 148 151 148 111 92 68 49 47 42
81 77 174 212 194 229 336 8 329 318 313 328 16 49 344 335 18 43 31 12 4 348 320 274 234 216 203 195 196 198 201 203 202 197 188 172 158 155 154 155 155 150 138 135 118 69 59 52 31
78 130 223 220 200 226 315 304 316 5 346 328 349 12 4 15 28 25 8 346 339 330 319 285 249 233 219 203 188 189 191 196 190 173 167 158 158 160 151 160 157 131 101 71 282 82 64 56 23
115 187 237 257 234 237 287 274 267 354 295 276 302 330 3 22 26 20 5 349 331 319 317 306 264 241 226 213 194 183 177 181 178 171 167 157 151 141 135 132 129 108 94 72 45 60 66 55 30
165 238 225 255 150 283 247 270 268 208 233 50 43 35 31 32 27 17 3 350 338 330 322 313 283 244 228 215 198 185 177 177 174 168 164 158 156 155 155 152 144 135 124 127 110 109 97 62 32
218 271 263 261 278 253 249 240 247 249 90 72 65 55 44 35 22 7 357 352 347 343 334 321 301 252 225 214 202 187 183 181 177 165 168 172 173 173 170 167 160 157 147 152 152 153 156 83 3
250 280 302 291 277 248 230 255 197 240 103 75 63 54 41 32 18 12 8 1 355 348 340 334 329 288 206 198 194 184 179 183 179 179 185 185 181 176 173 172 170 173 167 164 164 167 172 183 312
25 334 315 288 260 257 177 282 221 168 94 74 62 52 44 33 24 17 3 355 349 346 346 353 358 19 79 110 111 96 92 93 90 59 179 181 177 173 168 170 183 187 166 152 145 145 142 182 237
81 21 301 291 280 239 160 261 315 100 91 78 64 47 41 30 22 13 4 358 354 354 360 8 18 36 56 67 70 64 55 52 41 33 31 31 42 96 133 150 188 144 133 147 154 151 176 213 240
17 241 244 287 260 158 184 244 273 35 76 80 66 49 40 30 21 10 3 359 357 359 6 19 28 38 52 65 68 62 55 50 42 37 33 31 34 41 51 49 48 71 76 75 88 79 171 242 260
212 209 230 248 266 152 220 262 290 24 72 88 76 58 45 37 17 3 1 1 1 6 19 28 34 34 42 60 68 65 56 48 45 40 34 34 36 38 44 45 45 54 59 52 49 46 37 8 331
171 179 217 244 253 218 242 261 284 27 71 89 86 68 51 35 8 8 8 6 14 21 28 30 36 30 35 46 51 55 53 45 44 41 35 35 35 37 43 43 42 39 46 44 46 47 39 18 8
165 189 233 274 259 213 254 265 276 45 73 103 111 90 66 45 19 16 15 17 21 24 26 32 35 35 38 48 60 74 79 59 53 46 41 35 35 34 38 39 38 34 38 39 38 39 38 30 30
206 205 214 231 324 343 308 290 236 107 96 80 80 83 71 70 41 19 18 18 21 28 24 33 37 41 40 43 64 70 62 55 42 36 38 33 35 37 38 37 38 36 37 34 27 23 29 5 6
225 213 197 198 201 274 261 281 278 171 162 155 146 131 114 74 49 37 29 27 25 21 20 35 44 49 44 48 66 73 74 69 47 41 43 39 38 38 37 37 37 37 36 32 24 25 20 17 354
195 138 152 164 179 264 251 233 274 175 213 201 188 182 178 160 118 71 48 43 33 25 31 38 52 54 49 55 65 77 78 77 65 52 49 43 37 37 35 36 36 34 32 28 25 24 27 24 10
128 83 67 56 86 249 218 200 265 228 211 176 182 189 189 180 160 114 76 64 52 41 43 49 63 60 54 62 66 76 81 77 68 55 48 39 34 32 30 32 33 31 28 25 20 21 26 21 15
129 114 87 323 269 246 203 212 248 224 153 178 181 185 188 185 177 165 134 101 83 69 62 63 74 70 61 67 69 73 79 77 73 65 55 46 35 27 20 24 26 25 19 19 17 22 19 14 8
177 158 168 198 220 263 223 231 251 124 314 203 167 168 176 187 191 187 170 148 128 111 96 90 88 85 76 77 76 73 77 79 76 69 66 57 44 30 15 18 21 20 16 15 13 16 7 3 356
146 193 156 121 109 271 256 266 283 144 97 131 149 165 189 198 197 192 179 169 161 144 131 122 110 100 92 91 89 80 78 80 80 75 68 59 39 25 17 15 12 7 7 7 5 1 349 342 338
150 146 125 149 188 244 267 247 238 215 203 179 184 194 203 203 199 192 184 181 178 166 151 137 125 120 117 108 103 102 94 90 89 79 60 45 25 16 8 6 0 355 353 353 350 337 326 326 319
140 155 156 152 164 178 253 259 225 212 186 190 200 201 200 200 198 191 188 187 180 172 169 161 151 142 139 134 125 113 103 94 81 64 39 14 360 358 356 349 344 340 338 337 331 321 317 313 306
178 177 157 170 209 200 218 263 321 228 193 188 197 200 201 201 196 188 185 182 183 187 189 186 182 180 180 172 157 143 125 80 43 14 357 353 346 344 342 338 335 332 330 325 319 312 311 301 299